Weather History for Lone Rock, WI

Change the Weather History Date:

Friday, January 4, 2013

  Actual Average Record
Temperature  
Mean Temperature 18 °F -  
Max Temperature 30 °F 27 °F 48 °F (2007)
Min Temperature 5 °F 12 °F -4 °F (1999)
Degree Days  
Heating Degree Days 47    
Moisture  
Dew Point 9 °F    
Average Humidity 76    
Maximum Humidity 92    
Minimum Humidity 56    
Precipitation  
Precipitation 0.00 in - - ()
Sea Level Pressure  
Sea Level Pressure 30.17 in    
Wind  
Wind Speed 4 mph (West)    
Max Wind Speed 15 mph    
Max Gust Speed 17 mph    
Visibility 8 miles    
Events      
Averages and records for this station are not official NWS values.
T = Trace of Precipitation, MM = Missing Value Source: NWS Daily Summary

Daily Weather History Graph

Daily Weather History Graph

Search for Another Location

Airport:

Trip Planner

Search our weather history database for the weather conditions in past years. The results will help you decide how hot, cold, wet, or windy it might be!

Date:

Astronomy

Jan. 04, 2013 Rise Set
Actual Time 7:32 AM CST 4:39 PM CST
Civil Twilight 7:00 AM CST 5:11 PM CST
Nautical Twilight 6:24 AM CST 5:47 PM CST
Astronomical Twilight 5:50 AM CST 6:21 PM CST
Moon No Moon Rise 11:02 AM CST (1/4)
Length of Visible Light 10h 10m
Length of Day
9h 06m
Waning Gibbous, 55% of the Moon is Illuminated
Jan 4
Waning Gibbous
Jan 4
Last Quarter
Jan 11
New
Jan 18
First Quarter
Jan 26
Full

Hourly Weather History & Observations

Time (CST) Temp. Windchill Dew Point Humidity Pressure Visibility Wind Dir Wind Speed Gust Speed Precip Events Conditions
12:56 AM 6.1 °F -2.8 °F 1.0 °F 80% 30.23 in 9.0 mi West 4.6 mph - N/A   Clear
1:56 AM 7.0 °F -1.7 °F 3.0 °F 84% 30.21 in 9.0 mi West 4.6 mph - N/A   Clear
2:56 AM 8.1 °F 1.4 °F 3.9 °F 83% 30.19 in 9.0 mi WNW 3.5 mph - N/A   Clear
3:56 AM 8.1 °F - 5.0 °F 87% 30.17 in 8.0 mi Calm Calm - N/A   Clear
4:56 AM 10.0 °F 3.6 °F 7.0 °F 87% 30.15 in 8.0 mi WNW 3.5 mph - N/A   Clear
5:56 AM 12.0 °F 4.1 °F 7.0 °F 80% 30.15 in 8.0 mi WNW 4.6 mph - N/A   Clear
6:56 AM 10.9 °F - 7.0 °F 84% 30.15 in 7.0 mi Calm Calm - N/A   Clear
7:56 AM 10.9 °F - 7.0 °F 84% 30.15 in 6.0 mi Calm Calm - N/A   Clear
8:56 AM 14.0 °F 8.2 °F 10.0 °F 84% 30.15 in 7.0 mi WNW 3.5 mph - N/A   Clear
9:56 AM 19.9 °F 11.1 °F 12.0 °F 71% 30.16 in 8.0 mi West 6.9 mph - N/A   Clear
10:56 AM 24.1 °F 15.2 °F 14.0 °F 65% 30.15 in 9.0 mi West 8.1 mph 17.3 mph N/A   Clear
11:56 AM 27.0 °F 16.1 °F 15.1 °F 61% 30.13 in 10.0 mi West 12.7 mph - N/A   Clear
12:56 PM 28.0 °F 16.5 °F 16.0 °F 61% 30.12 in 10.0 mi West 15.0 mph - N/A   Clear
1:56 PM 28.9 °F 21.9 °F 17.1 °F 61% 30.12 in 10.0 mi West 6.9 mph - N/A   Clear
2:56 PM 30.0 °F 21.1 °F 16.0 °F 56% 30.13 in 10.0 mi West 10.4 mph - N/A   Clear
3:56 PM 28.9 °F 20.4 °F 16.0 °F 58% 30.15 in 10.0 mi West 9.2 mph - N/A   Clear
4:56 PM 25.0 °F 19.3 °F 14.0 °F 63% 30.17 in 10.0 mi West 4.6 mph - N/A   Clear
5:56 PM 26.1 °F - 15.1 °F 63% 30.19 in 10.0 mi Calm Calm - N/A   Clear
6:56 PM 14.0 °F - 9.0 °F 80% 30.20 in 9.0 mi Calm Calm - N/A   Clear
7:56 PM 12.9 °F - 8.1 °F 81% 30.20 in 9.0 mi Calm Calm - N/A   Clear
8:56 PM 12.0 °F - 8.1 °F 84% 30.21 in 8.0 mi Calm Calm - N/A   Clear
9:56 PM 10.0 °F - 8.1 °F 92% 30.21 in 6.0 mi Calm Calm - N/A   Clear
10:56 PM 6.1 °F - 1.0 °F 80% 30.22 in 8.0 mi Calm Calm - N/A   Clear
11:45 PM 6.8 °F -0.1 °F 3.2 °F 85% 30.17 in 1.5 mi East 3.5 mph - N/A   Clear
11:56 PM 5.0 °F -4.1 °F 1.9 °F 87% 30.19 in 1.2 mi East 4.6 mph - N/A   Clear